Regional Weather Roundup
Issued by NWS

Home | Current Version | Previous Version | Graphics & Text | Print | Product List | Glossary On
Versions: 1 2 3 4 5 6 7 8 9 10 11 12 13 14 15 16 17 18 19 20 21 22 23 24 25 26 27 28 29 30 31 32 33 34 35 36 37 38 39 40 41 42 43 44 45 46 47 48 49 50
000
ASUS43 KIND 251809
RWRIN

WEATHER ROUNDUP FOR INDIANA
NATIONAL WEATHER SERVICE INDIANAPOLIS IN
200 PM EDT SAT OCT 25 2014

NOTE: "FAIR" INDICATES FEW OR NO CLOUDS BELOW 12,000 FEET WITH NO
SIGNIFICANT WEATHER AND/OR OBSTRUCTIONS TO VISIBILITY.

* - STATION DOES NOT REPORT WEATHER SUCH AS PRECIPITATION OR FOG.

+ - STATION NOT QUALITY CONTROLLED BY THE NATIONAL WEATHER SERVICE.
    USE DATA WITH CAUTION...ESPECIALLY DEWPOINT AND RELATIVE
    HUMIDITY OBSERVATIONS.

INZ001>003-010>013-019-020-251900-
NORTHWEST INDIANA

CITY           SKY/WX    TMP DP  RH WIND       PRES   REMARKS
GARY /AIRPORT/ MOSUNNY   72  41  33 NW14      29.95F
KNOX *+        SUNNY     69  44  40 NW12G20   29.93F
LA PORTE +     SUNNY     68  44  42 NW14G21   29.94S
MICHIGAN CITY+ MOSUNNY   64  43  45 NW12G17   29.94F
MONTICELLO +   SUNNY     67  56  67 W9        29.95F
RENSSELAER +   SUNNY     68  55  64 W8G17     29.95F
VALPARAISO     SUNNY     69  39  33 NW13G21   29.95S
6HR MIN TEMP:  52; 6HR MAX TEMP:  70;


$$

LMZ046-743>745-251900-
SOUTHERN LAKE MICHIGAN

STATION/POSITION TIME  TEMP WIND        PRES
                       AIR  DIR/SP/G
                 (UTC) (F)  (DEG/KT/KT) (MB)
MICHIGAN CITY    1800   58  230/ 10/ 11   N/A

$$

INZ004-005-014>016-021>024-251900-
NORTH CENTRAL INDIANA

CITY           SKY/WX    TMP DP  RH WIND       PRES   REMARKS
ELKHART        SUNNY     66  48  52 NW12G21   29.91F
GOSHEN         SUNNY     66  53  63 W18G24    29.90F
6HR MIN TEMP:  52; 6HR MAX TEMP:  66;

LOGANSPORT +   SUNNY     66  52  59 NW7       29.95F
PERU/GRISSOM   SUNNY     68  56  67 NW15      29.93S
6HR MIN TEMP:  51; 6HR MAX TEMP:  69;

ROCHESTER +    SUNNY     68  54  60 W10G16    29.94F
SOUTH BEND     NOT AVBL
WARSAW +       MOSUNNY   63  54  72 NW17      29.92F HAZE

$$

INZ006>009-017-018-025>027-251900-
NORTHEAST INDIANA

CITY           SKY/WX    TMP DP  RH WIND       PRES   REMARKS
ANGOLA *+        N/A     66  55  68 W10       29.86F
AUBURN +       MOSUNNY   64  52  63 W18G24    29.90S
FORT WAYNE     MOSUNNY   70  52  52 W17G24    29.90F
6HR MIN TEMP:  53; 6HR MAX TEMP:  70;

HUNTINGTON +   SUNNY    N/A N/A N/A W13G23    29.90F

$$

INZ028-029-035-036-043>045-051>053-251900-
WEST CENTRAL INDIANA

CITY           SKY/WX    TMP DP  RH WIND       PRES   REMARKS
CRAWFORDSVL +  SUNNY     70  50  49 W10G16    29.96
GREENCASTLE +  SUNNY     72  54  53 W5        29.98S
LAFAYETTE      SUNNY     67  54  63 W7        29.95F
6HR MIN TEMP:  47; 6HR MAX TEMP:  67;

TERRE HAUTE    SUNNY     74  56  53 NW7       29.98F
6HR MIN TEMP:  50; 6HR MAX TEMP:  74;


$$

INZ030>032-037>040-046>048-054>057-064-065-251900-
CENTRAL INDIANA

CITY           SKY/WX    TMP DP  RH WIND       PRES   REMARKS
ANDERSON       SUNNY     72  52  49 W15       29.94F
CP ATTERBURY + SUNNY     72  55  56 SW6       29.96F
COLUMBUS       SUNNY     72  57  60 W5        29.95F
FRANKFORT +    SUNNY     73  54  51 W13       29.96F
INDIANAPOLIS   MOSUNNY   73  53  49 W12       29.95F
6HR MIN TEMP:  53; 6HR MAX TEMP:  73;

-EAGLE CREEK   SUNNY     72  53  51 NW8       29.95F
6HR MIN TEMP:  55; 6HR MAX TEMP:  72;

KOKOMO *+      SUNNY     72  54  53 W17       29.93F
MARION +       SUNNY     71  51  48 W14G22    29.93S
MT COMFORT *+  SUNNY     72  48  43 W10       29.94F
SHELBYVILLE    SUNNY     72  55  55 W12       29.95F
6HR MIN TEMP:  53; 6HR MAX TEMP:  72;

ZIONSVILLE +   SUNNY     73  50  44 W9G18     29.95F
6HR MIN TEMP:  55; 6HR MAX TEMP:  73;


$$

INZ033-034-041-042-049-050-058-059-251900-
EAST CENTRAL INDIANA

CITY           SKY/WX    TMP DP  RH WIND       PRES   REMARKS
MUNCIE         SUNNY     72  54  53 W14       29.92F
6HR MIN TEMP:  57; 6HR MAX TEMP:  72;


$$

INZ060-061-067>069-081>083-085>088-251900-
SOUTHWEST INDIANA

CITY           SKY/WX    TMP DP  RH WIND       PRES   REMARKS
EVANSVILLE     SUNNY     74  60  61 W7        30.00F
6HR MIN TEMP:  58; 6HR MAX TEMP:  75;

HUNTINGBURG *+ SUNNY     72  61  68 W8        30.00F
6HR MIN TEMP:  55; 6HR MAX TEMP:  72;

WASHINGTON +   SUNNY     73  59  60 W8        29.98F
6HR MIN TEMP:  58; 6HR MAX TEMP:  73;


$$

INZ062-063-066-070>080-084-089>092-251900-
SOUTH CENTRAL AND SOUTHEAST INDIANA

CITY           SKY/WX    TMP DP  RH WIND       PRES   REMARKS
BLOOMINGTON    SUNNY     72  56  57 SW12      29.97F
6HR MIN TEMP:  57; 6HR MAX TEMP:  72;


$$




USA.gov is the U.S. government's official web portal to all federal, state and local government web resources and services.